Weather History for San Sebastian, Spain

Change the Weather History Date:

Thursday, April 10, 2014

  Actual Average Record
Temperature  
Mean Temperature 56 °F -  
Max Temperature 65 °F 62 °F 73 °F (2013)
Min Temperature 48 °F 49 °F 39 °F (2004)
Degree Days  
Heating Degree Days 8    
Growing Degree Days 6 (Base 50)    
Moisture  
Dew Point 52 °F    
Average Humidity 80    
Maximum Humidity 100    
Minimum Humidity 56    
Precipitation  
Precipitation 0.00 in - - ()
Sea Level Pressure  
Sea Level Pressure 30.07 in    
Wind  
Wind Speed 3 mph ()    
Max Wind Speed 9 mph    
Max Gust Speed -    
Visibility 9.0 miles    
Events      
Averages and records for this station are not official NWS values.
T = Trace of Precipitation, MM = Missing Value Source: Averaged Metar Reports

Daily Weather History Graph

Daily Weather History Graph

Search for Another Location

Airport:

Trip Planner

Search our weather history database for the weather conditions in past years. The results will help you decide how hot, cold, wet, or windy it might be!

Date:

Astronomy

Apr. 10, 2014 Rise Set
Actual Time 7:33 AM CEST 8:44 PM CEST
Civil Twilight 7:04 AM CEST 9:13 PM CEST
Nautical Twilight 6:29 AM CEST 9:48 PM CEST
Astronomical Twilight 5:52 AM CEST 10:25 PM CEST
Moon 4:06 PM CEST (4/10) 4:56 AM CEST (4/10)
Length of Visible Light 14h 09m
Length of Day
13h 10m
Waxing Gibbous, 77% of the Moon is Illuminated
Apr 10
Waxing Gibbous
Apr 15
Full
Apr 22
Last Quarter
Apr 29
New
May 7
First Quarter

Hourly Weather History & Observations

Time (CEST) Temp. Dew Point Humidity Pressure Visibility Wind Dir Wind Speed Gust Speed Precip Events Conditions
5:30 AM 50.0 °F 50.0 °F 100% 30.09 in - Calm Calm - N/A   Clear
6:00 AM 50.0 °F 48.2 °F 94% 30.09 in - Variable 1.2 mph - N/A   Clear
6:30 AM 50.0 °F 48.2 °F 94% 30.09 in - Variable 2.3 mph - N/A   Clear
7:00 AM 50.0 °F 48.2 °F 94% 30.09 in - Variable 1.2 mph - N/A   Clear
7:30 AM 48.2 °F 46.4 °F 93% 30.09 in - South 3.5 mph - N/A   Clear
8:00 AM 49 °F 47 °F 92% 30.11 in 9 mi South 2.3 mph - -   Clear
8:00 AM 50.0 °F 48.2 °F 94% 30.09 in - Variable 2.3 mph - N/A   Clear
8:30 AM 50.0 °F 50.0 °F 100% 30.09 in - Calm Calm - N/A   Clear
9:00 AM 53.6 °F 50.0 °F 88% 30.09 in - Calm Calm - N/A   Clear
9:30 AM 53.6 °F 51.8 °F 94% 30.09 in - Variable 1.2 mph - N/A   Clear
10:00 AM 57.2 °F 51.8 °F 82% 30.09 in - Calm Calm - N/A   Clear
10:30 AM 59.0 °F 51.8 °F 77% 30.09 in - Variable 2.3 mph - N/A   Clear
11:00 AM 61 °F 53 °F 68% 30.12 in 9 mi North 6.9 mph - -   Clear
11:00 AM 59.0 °F 53.6 °F 82% 30.12 in - North 5.8 mph - N/A   Clear
11:30 AM 60.8 °F 53.6 °F 77% 30.12 in - North 5.8 mph - N/A   Clear
12:00 PM 60.8 °F 53.6 °F 77% 30.12 in - North 6.9 mph - N/A   Clear
12:30 PM 60.8 °F 55.4 °F 82% 30.12 in - NNE 6.9 mph - N/A   Clear
1:00 PM 60.8 °F 55.4 °F 82% 30.09 in - NNE 9.2 mph - N/A   Clear
1:30 PM 60.8 °F 55.4 °F 82% 30.09 in - NNE 9.2 mph - N/A   Clear
2:00 PM 61 °F 53 °F 68% 30.09 in 9 mi NNE 9.2 mph - -   Clear
2:00 PM 60.8 °F 55.4 °F 82% 30.06 in - NNE 9.2 mph - N/A   Clear
2:30 PM 60.8 °F 55.4 °F 82% 30.06 in - North 5.8 mph - N/A   Clear
3:00 PM 60.8 °F 55.4 °F 82% 30.04 in - North 6.9 mph - N/A   Clear
3:30 PM 60.8 °F 55.4 °F 82% 30.04 in - North 5.8 mph - N/A   Clear
4:00 PM 60.8 °F 55.4 °F 82% 30.04 in - North 6.9 mph - N/A   Clear
4:30 PM 60.8 °F 55.4 °F 82% 30.01 in - North 6.9 mph - N/A   Clear
5:00 PM 63 °F 55 °F 69% 30.03 in 9 mi North 6.9 mph - -   Scattered Clouds
5:00 PM 62.6 °F 57.2 °F 82% 30.01 in - NNE 5.8 mph - N/A   Clear
5:30 PM 62.6 °F 53.6 °F 72% 30.04 in - Variable 2.3 mph - N/A   Clear
6:00 PM 64.4 °F 48.2 °F 56% 30.04 in - Variable 2.3 mph - N/A   Clear
6:30 PM 64.4 °F 48.2 °F 56% 30.04 in - Variable 1.2 mph - N/A   Clear
7:00 PM 62.6 °F 48.2 °F 59% 30.04 in - Variable 2.3 mph - N/A   Clear
7:30 PM 62.6 °F 51.8 °F 68% 30.04 in - Variable 2.3 mph - N/A   Clear
8:00 PM 63 °F 51 °F 56% 30.07 in 9 mi WSW 3.5 mph - -   Overcast
8:00 PM 62.6 °F 50.0 °F 63% 30.06 in - Variable 2.3 mph - N/A   Clear
8:30 PM 60.8 °F 53.6 °F 77% 30.04 in - Variable 2.3 mph - N/A   Clear
9:00 PM 59.0 °F 53.6 °F 82% 30.04 in - Variable 2.3 mph - N/A   Clear
9:30 PM 59.0 °F 53.6 °F 82% 30.04 in - Variable 2.3 mph - N/A   Clear